This demonstration page uses our WeatherBlox Daily Observations layout. Learn more.

Left ArrowRight Arrow

38.88101, -77.10428

Hourly Observations for July 2, 2022

Temp ( °F °C ) Dew Point ( °F °C ) Humidity (%) Winds ( mph kmh ) Pressure ( in mb ) Visibility ( mi km ) Precip ( " mm )
12:52 am 00:52 Mostly Cloudy 81 27.2 69 20.6 67 67 SSW 8 13 29.97 1015 10 16 0.00 0.00
1:52 am 01:52 Partly Cloudy 81 27.2 69 20.6 67 67 SSW 10 17 29.96 1014 10 16 0.00 0.00
2:52 am 02:52 Cloudy 80 26.7 70 21.1 71 71 S 9 15 29.95 1014 10 16 0.00 0.00
3:52 am 03:52 Cloudy 79 26.1 70 21.1 74 74 S 14 22 29.94 1014 10 16 0.00 0.00
4:52 am 04:52 Cloudy 78 25.6 69 20.6 74 74 S 10 17 29.95 1014 10 16 0.00 0.00
5:52 am 05:52 Mostly Cloudy 78 25.6 69 20.6 74 74 S 7 11 29.96 1015 10 16 0.00 0.00
6:52 am 06:52 Mostly Cloudy 78 25.6 68 20 71 71 SSW 9 15 29.96 1015 10 16 0.00 0.00
7:52 am 07:52 Mostly Cloudy 78 25.6 68 20 71 71 SW 10 17 29.98 1015 10 16 0.00 0.00
8:52 am 08:52 Mostly Cloudy 79 26.1 69 20.6 72 72 SW 10 17 29.97 1015 10 16 0.00 0.00
9:52 am 09:52 Mostly Cloudy 82 27.8 69 20.6 65 65 VRB 5 7 29.96 1015 10 16 0.00 0.00
10:52 am 10:52 Mostly Cloudy 83 28.3 72 22.2 70 70 S 10 17 29.97 1015 10 16 0.00 0.00
11:52 am 11:52 Mostly Cloudy 83 28.3 72 22.2 70 70 S 13 20 29.97 1015 10 16 0.00 0.00
12:52 pm 12:52 Mostly Cloudy 86 30 73 22.8 65 65 S 13 20 29.96 1015 10 16 0.00 0.00
1:52 pm 13:52 Mostly Cloudy 87 30.6 72 22.2 61 61 SSW 13 20 29.95 1014 10 16 0.00 0.00
2:52 pm 14:52 Cloudy 88 31.1 74 23.3 63 63 S 16 26 29.94 1014 10 16 0.00 0.00
3:52 pm 15:52 Cloudy 89 31.7 73 22.8 59 59 S 13 20 29.93 1014 10 16 0.00 0.00
4:52 pm 16:52 Cloudy 88 31.1 75 23.9 66 66 S 12 19 29.92 1013 10 16 0.00 0.00
5:52 pm 17:52 Cloudy 88 31.1 74 23.3 63 63 S 12 19 29.91 1013 10 16 0.00 0.00
6:52 pm 18:52 Mostly Cloudy 87 30.6 73 22.8 63 63 S 12 19 29.91 1013 10 16 0.00 0.00
7:29 pm 19:29 Mostly Cloudy with Thunderstorms 88 31.1 72 22.2 59 59 SSW 9 15 29.93 1013 10 16 0.00 0.00
7:52 pm 19:52 Mostly Cloudy with Thunderstorms 87 30.6 72 22.2 61 61 SSW 8 13 29.93 1013 10 16 0.00 0.00
8:52 pm 20:52 Mostly Cloudy with Thunderstorms 86 30 72 22.2 63 63 NNW 16 26 29.93 1014 10 16 0.00 0.00
9:10 pm 21:10 Windy with Storms Likely 77 25 70 21.1 79 79 N 22 35 29.97 1015 10 16 0.00 0.00
9:38 pm 21:38 Cloudy with Thunderstorms 76 24.4 69 20.6 79 79 NE 10 17 29.97 1015 10 16 0.00 0.00
9:52 pm 21:52 Mostly Cloudy with Thunderstorms 76 24.4 70 21.1 82 82 ENE 9 15 29.96 1015 10 16 0.00 0.00
10:02 pm 22:02 Mostly Cloudy 76 24.4 70 21.1 82 82 ENE 9 15 29.97 1015 10 16 0.00 0.00
10:45 pm 22:45 Mostly Cloudy with Nearby Thunderstorms 76 24.4 69 20.6 79 79 NE 7 11 29.96 1014 10 16 0.00 0.00
10:52 pm 22:52 Mostly Cloudy with Nearby Thunderstorms 76 24.4 70 21.1 82 82 NNE 8 13 29.97 1015 10 16 0.00 0.00
10:56 pm 22:56 Mostly Cloudy 76 24.4 70 21.1 82 82 NNE 9 15 29.97 1015 10 16 0.00 0.00
11:35 pm 23:35 Cloudy 76 24.4 70 21.1 82 82 Calm 29.96 1014 10 16 0.00 0.00
11:52 pm 23:52 Cloudy 76 24.4 69 20.6 79 79 N 6 9 29.96 1015 10 16 0.00 0.00

Powered by AerisWeather